| time (UTC) | temp F | wind direction | speed MPH | gust MPH | rain 1hr in | rain 24hr in | rain mn in | humidity % | barometer mb |
| 20260902022135 | 63 | 183 | 2.0 | 5.0 | 0.00 | 0.00 | 0.00 | 89 | 1018.2 |
| 20260902021611 | 63 | 182 | 3.0 | 7.0 | 0.00 | 0.00 | 0.00 | 89 | 1018.3 |
| 20260902020619 | 63 | 207 | 3.0 | 8.0 | 0.00 | 0.00 | 0.00 | 89 | 1018.3 |
| 20260902015135 | 63 | 161 | 3.0 | 7.0 | 0.00 | 0.00 | 0.00 | 89 | 1018.3 |
| 20260902014607 | 63 | 196 | 3.0 | 6.0 | 0.00 | 0.00 | 0.00 | 89 | 1018.3 |
| 20260902013135 | 63 | 170 | 2.0 | 5.0 | 0.00 | 0.00 | 0.00 | 89 | 1018.2 |
| 20260902012133 | 63 | 173 | 2.0 | 5.0 | 0.00 | 0.00 | 0.00 | 88 | 1018.3 |
| 20260902011133 | 64 | 154 | 3.0 | 7.0 | 0.00 | 0.00 | 0.00 | 89 | 1018.3 |
| 20260902010133 | 64 | 202 | 3.0 | 6.0 | 0.00 | 0.00 | 0.00 | 88 | 1018.3 |
| 20260902005132 | 64 | 211 | 3.0 | 6.0 | 0.00 | 0.00 | 0.00 | 88 | 1018.4 |
| 20260902004131 | 64 | 191 | 3.0 | 7.0 | 0.00 | 0.00 | 0.00 | 88 | 1018.4 |
| 20260902003129 | 64 | 199 | 3.0 | 5.0 | 0.00 | 0.00 | 0.00 | 88 | 1018.5 |
| 20260902002129 | 64 | 189 | 3.0 | 7.0 | 0.00 | 0.00 | 0.00 | 88 | 1018.5 |
| 20260902001129 | 64 | 167 | 3.0 | 7.0 | 0.00 | 0.00 | 0.00 | 87 | 1018.4 |
| 20260902000610 | 64 | 180 | 3.0 | 6.0 | 0.00 | 0.00 | 0.00 | 86 | 1018.6 |
| 20260901235134 | 64 | 185 | 3.0 | 6.0 | 0.00 | 0.00 | 0.00 | 85 | 1018.5 |
| 20260901234129 | 64 | 176 | 2.0 | 6.0 | 0.00 | 0.00 | 0.00 | 85 | 1018.6 |
| 20260901233128 | 64 | 169 | 3.0 | 6.0 | 0.00 | 0.00 | 0.00 | 84 | 1018.7 |
| 20260901232126 | 65 | 187 | 2.0 | 6.0 | 0.00 | 0.00 | 0.00 | 82 | 1018.6 |
| 20260901231126 | 65 | 163 | 3.0 | 9.0 | 0.00 | 0.00 | 0.00 | 81 | 1018.8 |
| 20260901230126 | 64 | 181 | 2.0 | 6.0 | 0.00 | 0.00 | 0.00 | 81 | 1018.8 |
| 20260901230056 | 64 | 233 | 3.0 | 7.0 | 0.00 | 0.00 | 0.00 | 81 | 1018.9 |
| 20260901224124 | 64 | 167 | 2.0 | 5.0 | 0.00 | 0.00 | 0.00 | 80 | 1018.9 |
| 20260901223608 | 65 | 213 | 3.0 | 9.0 | 0.00 | 0.00 | 0.00 | 79 | 1018.9 |
| 20260901222123 | 65 | 215 | 3.0 | 9.0 | 0.00 | 0.00 | 0.00 | 78 | 1019.0 |
| 20260901222054 | 64 | 213 | 2.0 | 7.0 | 0.00 | 0.00 | 0.00 | 78 | 1019.0 |
| 20260901220123 | 64 | 220 | 3.0 | 8.0 | 0.00 | 0.00 | 0.00 | 78 | 1019.0 |
| 20260901215121 | 64 | 157 | 3.0 | 6.0 | 0.00 | 0.00 | 0.00 | 78 | 1019.1 |
| 20260901214120 | 64 | 222 | 2.0 | 6.0 | 0.00 | 0.00 | 0.00 | 77 | 1019.0 |
| 20260901213120 | 64 | 235 | 2.0 | 9.0 | 0.00 | 0.00 | 0.00 | 76 | 1019.0 |
| 20260901212551 | 65 | 214 | 2.0 | 7.0 | 0.00 | 0.00 | 0.00 | 76 | 1019.0 |
| 20260901211117 | 65 | 188 | 3.0 | 7.0 | 0.00 | 0.00 | 0.00 | 76 | 1019.0 |
| 20260901211040 | 65 | 152 | 2.0 | 7.0 | 0.00 | 0.00 | 0.00 | 76 | 1019.0 |
| 20260901205118 | 65 | 256 | 2.0 | 6.0 | 0.00 | 0.00 | 0.00 | 75 | 1019.0 |
| 20260901204118 | 65 | 175 | 2.0 | 5.0 | 0.00 | 0.00 | 0.00 | 74 | 1019.0 |
| 20260901203117 | 65 | 232 | 2.0 | 8.0 | 0.00 | 0.00 | 0.00 | 74 | 1019.3 |
| 20260901202118 | 65 | 227 | 3.0 | 7.0 | 0.00 | 0.00 | 0.00 | 75 | 1019.4 |
| 20260901201122 | 65 | 215 | 2.0 | 6.0 | 0.00 | 0.00 | 0.00 | 74 | 1019.5 |
| 20260901200116 | 65 | 258 | 2.0 | 10.0 | 0.00 | 0.00 | 0.00 | 75 | 1019.4 |
| 20260901195115 | 64 | 191 | 2.0 | 7.0 | 0.00 | 0.00 | 0.00 | 75 | 1019.5 |
| 20260901194115 | 64 | 222 | 1.0 | 5.0 | 0.00 | 0.00 | 0.00 | 75 | 1019.4 |
| 20260901193120 | 64 | 223 | 1.0 | 5.0 | 0.00 | 0.00 | 0.00 | 75 | 1019.3 |
| 20260901192116 | 64 | 217 | 1.0 | 4.0 | 0.00 | 0.00 | 0.00 | 75 | 1019.2 |
| 20260901191116 | 64 | 198 | 2.0 | 4.0 | 0.00 | 0.00 | 0.00 | 75 | 1019.1 |
| 20260901190116 | 64 | 209 | 1.0 | 4.0 | 0.00 | 0.00 | 0.00 | 74 | 1019.1 |
| 20260901185119 | 64 | 198 | 1.0 | 3.0 | 0.00 | 0.00 | 0.00 | 73 | 1019.0 |
| 20260901184119 | 64 | 188 | 2.0 | 5.0 | 0.00 | 0.00 | 0.00 | 72 | 1018.9 |
| 20260901183111 | 65 | 202 | 1.0 | 4.0 | 0.00 | 0.00 | 0.00 | 71 | 1018.9 |
| 20260901182112 | 65 | 190 | 1.0 | 3.0 | 0.00 | 0.00 | 0.00 | 69 | 1018.8 |
| 20260901181555 | 65 | 229 | 1.0 | 5.0 | 0.00 | 0.00 | 0.00 | 69 | 1018.9 |
| 20260901180112 | 66 | 198 | 1.0 | 3.0 | 0.00 | 0.00 | 0.00 | 69 | 1018.9 |
| 20260901175116 | 67 | 194 | 1.0 | 4.0 | 0.00 | 0.00 | 0.00 | 68 | 1018.9 |
| 20260901174111 | 67 | 263 | 1.0 | 6.0 | 0.00 | 0.00 | 0.00 | 68 | 1019.0 |
| 20260901173116 | 67 | 258 | 3.0 | 7.0 | 0.00 | 0.00 | 0.00 | 67 | 1019.0 |
| 20260901172117 | 67 | 225 | 3.0 | 7.0 | 0.00 | 0.00 | 0.00 | 68 | 1019.1 |
| 20260901171111 | 67 | 295 | 3.0 | 7.0 | 0.00 | 0.00 | 0.00 | 68 | 1019.2 |
| 20260901170111 | 67 | 257 | 3.0 | 8.0 | 0.00 | 0.00 | 0.00 | 69 | 1019.2 |
| 20260901165111 | 67 | 180 | 3.0 | 7.0 | 0.00 | 0.00 | 0.00 | 68 | 1019.3 |
| 20260901164111 | 67 | 218 | 3.0 | 8.0 | 0.00 | 0.00 | 0.00 | 66 | 1019.4 |
| 20260901163111 | 68 | 257 | 3.0 | 7.0 | 0.00 | 0.00 | 0.00 | 65 | 1019.4 |
| 20260901162111 | 69 | 278 | 3.0 | 8.0 | 0.00 | 0.00 | 0.00 | 64 | 1019.3 |
| 20260901161109 | 69 | 286 | 3.0 | 7.0 | 0.00 | 0.00 | 0.00 | 64 | 1019.3 |
| 20260901160109 | 69 | 219 | 4.0 | 9.0 | 0.00 | 0.00 | 0.00 | 66 | 1019.3 |
| 20260901155107 | 69 | 255 | 4.0 | 10.0 | 0.00 | 0.00 | 0.00 | 66 | 1019.4 |
| 20260901154107 | 69 | 267 | 4.0 | 10.0 | 0.00 | 0.00 | 0.00 | 65 | 1019.4 |
| 20260901153543 | 69 | 175 | 4.0 | 7.0 | 0.00 | 0.00 | 0.00 | 66 | 1019.4 |
| 20260901152107 | 69 | 260 | 4.0 | 10.0 | 0.00 | 0.00 | 0.00 | 65 | 1019.3 |
| 20260901151107 | 69 | 263 | 4.0 | 10.0 | 0.00 | 0.00 | 0.00 | 66 | 1019.3 |
| 20260901150555 | 69 | 208 | 4.0 | 9.0 | 0.00 | 0.00 | 0.00 | 65 | 1019.2 |
| 20260901145112 | 69 | 288 | 4.0 | 10.0 | 0.00 | 0.00 | 0.00 | 64 | 1019.2 |
| 20260901144107 | 70 | 197 | 3.0 | 9.0 | 0.00 | 0.00 | 0.00 | 63 | 1019.2 |
| 20260901143118 | 70 | 290 | 4.0 | 9.0 | 0.00 | 0.00 | 0.00 | 66 | 1019.2 |
| 20260901142107 | 69 | 223 | 4.0 | 9.0 | 0.00 | 0.00 | 0.00 | 66 | 1019.4 |
| 20260901141106 | 69 | 252 | 4.0 | 11.0 | 0.00 | 0.00 | 0.00 | 65 | 1019.3 |
| 20260901140107 | 69 | 234 | 4.0 | 9.0 | 0.00 | 0.00 | 0.00 | 65 | 1019.3 |
| 20260901135112 | 69 | 290 | 4.0 | 8.0 | 0.00 | 0.00 | 0.00 | 64 | 1019.4 |
| 20260901133111 | 70 | 267 | 5.0 | 10.0 | 0.00 | 0.00 | 0.00 | 64 | 1019.4 |
| 20260901132105 | 70 | 254 | 3.0 | 9.0 | 0.00 | 0.00 | 0.00 | 61 | 1019.4 |
| 20260901131549 | 70 | 248 | 4.0 | 9.0 | 0.00 | 0.00 | 0.00 | 63 | 1019.5 |
| 20260901125114 | 70 | 224 | 3.0 | 9.0 | 0.00 | 0.00 | 0.00 | 63 | 1019.5 |
| 20260901124107 | 70 | 298 | 4.0 | 9.0 | 0.00 | 0.00 | 0.00 | 63 | 1019.5 |
| 20260901123103 | 70 | 300 | 3.0 | 9.0 | 0.00 | 0.00 | 0.00 | 64 | 1019.5 |
| 20260901122104 | 69 | 314 | 4.0 | 10.0 | 0.00 | 0.00 | 0.00 | 64 | 1019.6 |
| 20260901121103 | 69 | 252 | 4.0 | 8.0 | 0.00 | 0.00 | 0.00 | 64 | 1019.5 |
| 20260901115102 | 69 | 288 | 4.0 | 10.0 | 0.00 | 0.00 | 0.00 | 65 | 1019.6 |
| 20260901114102 | 70 | 248 | 3.0 | 9.0 | 0.00 | 0.00 | 0.00 | 64 | 1019.7 |
| 20260901113108 | 69 | 268 | 3.0 | 8.0 | 0.00 | 0.00 | 0.00 | 65 | 1019.7 |
| 20260901112103 | 69 | 294 | 4.0 | 11.0 | 0.00 | 0.00 | 0.00 | 64 | 1019.7 |
| 20260901111102 | 70 | 238 | 4.0 | 8.0 | 0.00 | 0.00 | 0.00 | 62 | 1019.6 |
| 20260901110104 | 70 | 306 | 3.0 | 8.0 | 0.00 | 0.00 | 0.00 | 64 | 1019.6 |
| 20260901105102 | 69 | 304 | 4.0 | 10.0 | 0.00 | 0.00 | 0.00 | 63 | 1019.5 |
| 20260901104103 | 69 | 253 | 4.0 | 9.0 | 0.00 | 0.00 | 0.00 | 65 | 1019.5 |
| 20260901103540 | 69 | 210 | 3.0 | 9.0 | 0.00 | 0.00 | 0.00 | 65 | 1019.4 |
| 20260901102058 | 69 | 253 | 3.0 | 8.0 | 0.00 | 0.00 | 0.00 | 67 | 1019.5 |
| 20260901101058 | 69 | 246 | 3.0 | 9.0 | 0.00 | 0.00 | 0.00 | 68 | 1019.5 |
| 20260901100129 | 68 | 281 | 3.0 | 7.0 | 0.00 | 0.00 | 0.00 | 68 | 1019.5 |
| 20260901094054 | 68 | 287 | 3.0 | 10.0 | 0.00 | 0.00 | 0.00 | 69 | 1019.4 |
| 20260901093055 | 68 | 261 | 3.0 | 8.0 | 0.00 | 0.00 | 0.00 | 69 | 1019.3 |
| 20260901092104 | 68 | 276 | 3.0 | 8.0 | 0.00 | 0.00 | 0.00 | 70 | 1019.3 |
| 20260901091054 | 68 | 315 | 4.0 | 11.0 | 0.00 | 0.00 | 0.00 | 70 | 1019.2 |
| 20260901090104 | 68 | 351 | 4.0 | 9.0 | 0.00 | 0.00 | 0.00 | 71 | 1019.1 |
| 20260901085727 | 67 | 336 | 4.0 | 9.0 | 0.00 | 0.00 | 0.00 | 71 | 1019.0 |
| 20260901084053 | 67 | 294 | 3.0 | 10.0 | 0.00 | 0.00 | 0.00 | 72 | 1019.0 |
| 20260901083052 | 68 | 282 | 3.0 | 10.0 | 0.00 | 0.00 | 0.00 | 70 | 1018.8 |
| 20260901082052 | 68 | 270 | 3.0 | 9.0 | 0.00 | 0.00 | 0.00 | 69 | 1018.7 |
| 20260901082013 | 67 | 266 | 3.0 | 7.0 | 0.00 | 0.00 | 0.00 | 70 | 1018.5 |
| 20260901080050 | 67 | 300 | 3.0 | 8.0 | 0.00 | 0.00 | 0.00 | 70 | 1018.6 |
| 20260901075055 | 67 | 270 | 3.0 | 7.0 | 0.00 | 0.00 | 0.00 | 70 | 1018.5 |
| 20260901074531 | 67 | 262 | 3.0 | 9.0 | 0.00 | 0.00 | 0.00 | 70 | 1018.4 |
| 20260901073532 | 67 | 289 | 4.0 | 12.0 | 0.00 | 0.00 | 0.00 | 71 | 1018.3 |
| 20260901072051 | 66 | 279 | 3.0 | 8.0 | 0.00 | 0.00 | 0.00 | 72 | 1018.2 |
| 20260901071048 | 66 | 277 | 3.0 | 7.0 | 0.00 | 0.00 | 0.00 | 72 | 1018.1 |
| 20260901070046 | 66 | 254 | 3.0 | 7.0 | 0.00 | 0.00 | 0.00 | 74 | 1018.1 |
| 20260901065521 | 66 | 331 | 3.0 | 9.0 | 0.00 | 0.00 | 0.00 | 73 | 1018.0 |
| 20260901064044 | 65 | 321 | 3.0 | 10.0 | 0.00 | 0.00 | 0.00 | 74 | 1017.9 |
| 20260901063049 | 65 | 288 | 4.0 | 9.0 | 0.00 | 0.00 | 0.00 | 75 | 1017.8 |
| 20260901062044 | 65 | 316 | 4.0 | 9.0 | 0.00 | 0.00 | 0.00 | 74 | 1017.7 |
| 20260901061040 | 65 | 348 | 4.0 | 8.0 | 0.00 | 0.00 | 0.00 | 75 | 1017.5 |
| 20260901060040 | 65 | 299 | 3.0 | 7.0 | 0.00 | 0.00 | 0.00 | 75 | 1017.4 |
| 20260901055040 | 65 | 327 | 3.0 | 8.0 | 0.00 | 0.01 | 0.00 | 74 | 1017.4 |
| 20260901054040 | 65 | 299 | 3.0 | 7.0 | 0.00 | 0.01 | 0.00 | 75 | 1017.3 |
| 20260901054005 | 65 | 295 | 3.0 | 7.0 | 0.00 | 0.01 | 0.00 | 75 | 1017.1 |
| 20260901052033 | 65 | 313 | 4.0 | 9.0 | 0.00 | 0.02 | 0.00 | 75 | 1017.2 |
| 20260901051033 | 65 | 348 | 3.0 | 7.0 | 0.00 | 0.02 | 0.00 | 76 | 1017.1 |
| 20260901050035 | 65 | 291 | 4.0 | 9.0 | 0.00 | 0.02 | 0.00 | 75 | 1017.0 |
| 20260901045033 | 65 | 336 | 3.0 | 6.0 | 0.00 | 0.02 | 0.00 | 74 | 1017.0 |
| 20260901044033 | 66 | 293 | 4.0 | 7.0 | 0.00 | 0.03 | 0.00 | 72 | 1016.8 |
| 20260901043033 | 66 | 331 | 4.0 | 10.0 | 0.00 | 0.04 | 0.00 | 73 | 1016.8 |
| 20260901042041 | 66 | 333 | 4.0 | 11.0 | 0.00 | 0.06 | 0.00 | 73 | 1016.7 |
| 20260901041031 | 66 | 301 | 4.0 | 9.0 | 0.00 | 0.06 | 0.00 | 74 | 1016.5 |
| 20260901040036 | 66 | 281 | 4.0 | 7.0 | 0.00 | 0.06 | 0.00 | 75 | 1016.5 |
| 20260901035029 | 66 | 307 | 3.0 | 8.0 | 0.00 | 0.06 | 0.00 | 75 | 1016.2 |
| 20260901034029 | 66 | 304 | 3.0 | 8.0 | 0.00 | 0.06 | 0.00 | 74 | 1016.3 |
| 20260901033039 | 66 | 289 | 4.0 | 9.0 | 0.00 | 0.06 | 0.00 | 74 | 1016.3 |
| 20260901032039 | 66 | 315 | 4.0 | 8.0 | 0.00 | 0.06 | 0.00 | 75 | 1016.4 |
| 20260901031034 | 66 | 282 | 4.0 | 9.0 | 0.00 | 0.06 | 0.00 | 75 | 1016.4 |
| 20260901030030 | 66 | 215 | 4.0 | 8.0 | 0.00 | 0.06 | 0.00 | 73 | 1016.3 |
| 20260901025518 | 66 | 313 | 4.0 | 7.0 | 0.00 | 0.06 | 0.00 | 75 | 1016.2 |
| 20260901024030 | 67 | 290 | 4.0 | 8.0 | 0.00 | 0.06 | 0.00 | 74 | 1016.2 |
| 20260901023029 | 67 | 355 | 5.0 | 10.0 | 0.00 | 0.06 | 0.00 | 73 | 1016.2 |